S-NET C

Last updated on Sun Jun 21 2026 00:03:22 GMT+0000 (Coordinated Universal Time)

1 43189U 18014K 26171.31421336 .00003742 00000+0 19448-3 0 9993 2 43189 97.5390 76.3562 0010128 7.5265 352.6118 15.16659336457788
UTC large
Height (km)
Speed (km/s)
/
Latitude / Longitude
Inclination (degrees)
Orbital Period (minutes)
Azimuth
Elevation
Range (km)
Doppler Factor

Next 0 passes for location: London (51.5072 / 0.1276)

No passes found over London.
S-NET C